When you browse on this site, cookies collect data to enhance your experience and personalize the content and advertising you see.
Visit our Privacy Policy to learn more. By continuing to use the site, you agree to this use of cookies and data.
  • In Österreich
  • Länderverzeichnis
  • Für 7 Tage
  • Wassertemperatur
  • Satellitenkarten
  • Wetterkarte
  • News
  • Widgets
  • user-avatar
    Anmelden

    Stündliche Wetter Albany

    Heute, 22 Mai, Mittwoch

    Zeit Temperatur Niederschläge Wind Luftdruck Luftfeuchtigkeit
    00:00 +12°C° 0 mm 3 m/S 763 mmHg 85%
    01:00 +12°C° 0 mm 4 m/S 762 mmHg 85%
    02:00 +12°C° 0 mm 4 m/S 762 mmHg 83%
    03:00 +11°C° 0 mm 4 m/S 762 mmHg 84%
    04:00 +11°C° 0 mm 4 m/S 762 mmHg 85%
    05:00 +11°C° 0 mm 4 m/S 762 mmHg 86%
    06:00 +11°C° 0 mm 4 m/S 762 mmHg 85%
    07:00 +12°C° 0 mm 4 m/S 763 mmHg 84%
    08:00 +12°C° 0 mm 5 m/S 763 mmHg 80%
    09:00 +14°C° 0 mm 5 m/S 763 mmHg 73%
    10:00 +16°C° 0 mm 5 m/S 762 mmHg 65%
    11:00 +19°C° 0 mm 5 m/S 762 mmHg 57%
    12:00 +20°C° 0 mm 4 m/S 762 mmHg 54%
    13:00 +20°C° 0 mm 4 m/S 761 mmHg 51%
    14:00 +21°C° 0 mm 2 m/S 761 mmHg 47%
    15:00 +20°C° 0 mm 2 m/S 761 mmHg 52%
    16:00 +19°C° 0 mm 2 m/S 761 mmHg 57%
    17:00 +17°C° 0 mm 2 m/S 761 mmHg 63%
    18:00 +17°C° 0 mm 2 m/S 761 mmHg 65%
    19:00 +17°C° 0 mm 2 m/S 761 mmHg 67%
    20:00 +16°C° 0 mm 3 m/S 761 mmHg 70%
    21:00 +16°C° 0 mm 3 m/S 761 mmHg 71%
    22:00 +14°C° 0 mm 3 m/S 761 mmHg 73%
    23:00 +14°C° 0 mm 4 m/S 761 mmHg 75%

    Morgen, 23 Mai, Donnerstag

    Zeit Temperatur Niederschläge Wind Luftdruck Luftfeuchtigkeit
    00:00 +13°C° 0 mm 4 m/S 761 mmHg 77%
    01:00 +13°C° 0 mm 4 m/S 761 mmHg 79%
    02:00 +13°C° 0 mm 4 m/S 761 mmHg 82%
    03:00 +13°C° 0 mm 4 m/S 761 mmHg 83%
    04:00 +13°C° 0 mm 4 m/S 761 mmHg 85%
    05:00 +13°C° 0 mm 4 m/S 761 mmHg 87%
    06:00 +13°C° 0 mm 4 m/S 762 mmHg 86%
    07:00 +13°C° 0 mm 5 m/S 762 mmHg 86%
    08:00 +14°C° 0 mm 5 m/S 762 mmHg 86%
    09:00 +15°C° 0 mm 5 m/S 762 mmHg 78%
    10:00 +17°C° 0 mm 5 m/S 762 mmHg 71%
    11:00 +20°C° 0 mm 5 m/S 763 mmHg 63%
    12:00 +20°C° 0.1 mm 5 m/S 762 mmHg 62%
    13:00 +20°C° 0.1 mm 6 m/S 762 mmHg 60%
    14:00 +21°C° 0.1 mm 6 m/S 761 mmHg 58%
    15:00 +20°C° 0 mm 6 m/S 762 mmHg 62%
    16:00 +19°C° 0 mm 5 m/S 762 mmHg 65%
    17:00 +17°C° 0 mm 5 m/S 762 mmHg 68%
    18:00 +16°C° 0 mm 5 m/S 762 mmHg 71%
    19:00 +15°C° 0 mm 5 m/S 762 mmHg 74%
    20:00 +15°C° 0 mm 5 m/S 763 mmHg 78%
    21:00 +14°C° 0 mm 5 m/S 763 mmHg 80%
    22:00 +14°C° 0 mm 5 m/S 763 mmHg 82%
    23:00 +14°C° 0 mm 5 m/S 763 mmHg 84%

    übermorgen, 24 Mai, Freitag

    Zeit Temperatur Niederschläge Wind Luftdruck Luftfeuchtigkeit
    00:00 +14°C° 0 mm 5 m/S 763 mmHg 85%
    01:00 +14°C° 0 mm 5 m/S 762 mmHg 86%
    02:00 +13°C° 0 mm 5 m/S 762 mmHg 87%
    03:00 +13°C° 0.1 mm 5 m/S 762 mmHg 87%
    04:00 +14°C° 0.1 mm 5 m/S 762 mmHg 87%
    05:00 +14°C° 0.1 mm 5 m/S 762 mmHg 87%
    06:00 +14°C° 0.1 mm 5 m/S 762 mmHg 86%
    07:00 +14°C° 0.1 mm 5 m/S 763 mmHg 86%
    08:00 +14°C° 0.1 mm 5 m/S 763 mmHg 86%
    09:00 +15°C° 0.1 mm 5 m/S 763 mmHg 83%
    10:00 +15°C° 0.1 mm 5 m/S 763 mmHg 80%
    11:00 +16°C° 0.1 mm 5 m/S 763 mmHg 76%
    12:00 +16°C° 0.1 mm 5 m/S 763 mmHg 76%
    13:00 +16°C° 0.1 mm 5 m/S 762 mmHg 75%
    14:00 +16°C° 0.1 mm 5 m/S 762 mmHg 74%
    15:00 +16°C° 0.1 mm 5 m/S 762 mmHg 76%
    16:00 +16°C° 0.1 mm 5 m/S 762 mmHg 77%
    17:00 +15°C° 0.1 mm 5 m/S 762 mmHg 78%
    18:00 +15°C° 0.2 mm 5 m/S 763 mmHg 80%
    19:00 +15°C° 0.2 mm 5 m/S 763 mmHg 82%
    20:00 +14°C° 0.2 mm 4 m/S 763 mmHg 83%
    21:00 +14°C° 0.1 mm 4 m/S 764 mmHg 82%
    22:00 +14°C° 0.1 mm 4 m/S 764 mmHg 81%
    23:00 +14°C° 0.1 mm 4 m/S 764 mmHg 80%

    25 Mai, Samstag

    Zeit Temperatur Niederschläge Wind Luftdruck Luftfeuchtigkeit
    00:00 +14°C° 0.1 mm 4 m/S 764 mmHg 82%
    01:00 +14°C° 0.1 mm 4 m/S 764 mmHg 83%
    02:00 +14°C° 0.1 mm 3 m/S 764 mmHg 84%
    03:00 +13°C° 0.1 mm 4 m/S 764 mmHg 84%
    04:00 +13°C° 0.1 mm 4 m/S 764 mmHg 84%
    05:00 +13°C° 0.1 mm 4 m/S 764 mmHg 84%
    06:00 +13°C° 0.1 mm 3 m/S 765 mmHg 83%
    07:00 +13°C° 0.1 mm 3 m/S 765 mmHg 82%
    08:00 +13°C° 0.1 mm 3 m/S 766 mmHg 81%
    09:00 +14°C° 0 mm 3 m/S 766 mmHg 78%
    10:00 +14°C° 0 mm 3 m/S 766 mmHg 75%
    11:00 +16°C° 0 mm 3 m/S 766 mmHg 72%
    12:00 +16°C° 0 mm 3 m/S 766 mmHg 68%
    13:00 +16°C° 0 mm 3 m/S 765 mmHg 64%
    14:00 +17°C° 0 mm 3 m/S 765 mmHg 61%
    15:00 +16°C° 0 mm 3 m/S 765 mmHg 63%
    16:00 +15°C° 0 mm 2 m/S 766 mmHg 65%
    17:00 +15°C° 0 mm 2 m/S 766 mmHg 68%
    18:00 +14°C° 0 mm 1 m/S 766 mmHg 68%
    19:00 +14°C° 0 mm 1 m/S 766 mmHg 68%
    20:00 +13°C° 0 mm 0 m/S 767 mmHg 68%
    21:00 +13°C° 0 mm 0 m/S 767 mmHg 67%
    22:00 +14°C° 0 mm 1 m/S 767 mmHg 67%
    23:00 +14°C° 0 mm 1 m/S 767 mmHg 66%

    26 Mai, Sonntag

    Zeit Temperatur Niederschläge Wind Luftdruck Luftfeuchtigkeit
    00:00 +14°C° 0 mm 1 m/S 767 mmHg 67%
    01:00 +13°C° 0 mm 1 m/S 766 mmHg 68%
    02:00 +13°C° 0 mm 1 m/S 766 mmHg 68%
    03:00 +13°C° 0 mm 1 m/S 766 mmHg 70%
    04:00 +12°C° 0 mm 1 m/S 766 mmHg 72%
    05:00 +12°C° 0 mm 2 m/S 766 mmHg 73%
    06:00 +12°C° 0 mm 2 m/S 766 mmHg 74%
    07:00 +12°C° 0 mm 2 m/S 767 mmHg 75%
    08:00 +11°C° 0 mm 3 m/S 767 mmHg 76%
    09:00 +13°C° 0 mm 3 m/S 767 mmHg 69%
    10:00 +15°C° 0 mm 2 m/S 767 mmHg 63%
    11:00 +17°C° 0 mm 2 m/S 767 mmHg 56%
    12:00 +17°C° 0 mm 3 m/S 766 mmHg 56%
    13:00 +18°C° 0 mm 3 m/S 766 mmHg 56%
    14:00 +18°C° 0 mm 3 m/S 765 mmHg 56%
    15:00 +17°C° 0 mm 3 m/S 765 mmHg 61%
    16:00 +16°C° 0 mm 3 m/S 765 mmHg 66%
    17:00 +14°C° 0 mm 3 m/S 765 mmHg 72%
    18:00 +14°C° 0 mm 2 m/S 766 mmHg 75%
    19:00 +14°C° 0 mm 2 m/S 766 mmHg 79%
    20:00 +13°C° 0 mm 2 m/S 766 mmHg 83%
    21:00 +13°C° 0 mm 2 m/S 766 mmHg 84%
    22:00 +13°C° 0 mm 2 m/S 766 mmHg 85%
    23:00 +13°C° 0 mm 2 m/S 766 mmHg 86%

    27 Mai, Montag

    Zeit Temperatur Niederschläge Wind Luftdruck Luftfeuchtigkeit
    00:00 +11°C° 0 mm 3 m/S 766 mmHg 87%
    01:00 +11°C° 0 mm 3 m/S 766 mmHg 88%
    02:00 +11°C° 0 mm 3 m/S 765 mmHg 89%
    03:00 +11°C° 0 mm 3 m/S 765 mmHg 90%
    04:00 +11°C° 0 mm 3 m/S 765 mmHg 90%
    05:00 +11°C° 0 mm 3 m/S 765 mmHg 91%
    06:00 +11°C° 0 mm 3 m/S 766 mmHg 90%
    07:00 +11°C° 0 mm 3 m/S 766 mmHg 89%
    08:00 +12°C° 0 mm 2 m/S 766 mmHg 88%
    09:00 +14°C° 0 mm 2 m/S 766 mmHg 81%
    10:00 +16°C° 0 mm 3 m/S 766 mmHg 73%
    11:00 +17°C° 0 mm 3 m/S 766 mmHg 66%
    12:00 +17°C° 0 mm 3 m/S 766 mmHg 65%
    13:00 +17°C° 0 mm 3 m/S 765 mmHg 64%
    14:00 +17°C° 0 mm 3 m/S 765 mmHg 63%
    15:00 +17°C° 0 mm 3 m/S 765 mmHg 66%
    16:00 +16°C° 0 mm 2 m/S 765 mmHg 69%
    17:00 +15°C° 0 mm 2 m/S 765 mmHg 72%
    18:00 +14°C° 0 mm 2 m/S 766 mmHg 76%
    19:00 +13°C° 0 mm 1 m/S 766 mmHg 80%
    20:00 +12°C° 0 mm 1 m/S 766 mmHg 83%
    21:00 +12°C° 0 mm 1 m/S 766 mmHg 84%
    22:00 +11°C° 0 mm 0 m/S 766 mmHg 86%
    23:00 +10°C° 0 mm 0 m/S 766 mmHg 87%
    Mehr zeigen